Location: Vivajo
(43.6667°N, 11.4500°E)
Time: 18:36:25
(UTC+00:00)

Daily predictions for brighter satellites

Satellite Brightness Start Highest point End
(mag) Time Altitude Azimuth Time Altitude Azimuth Time Altitude Azimuth
Cosmos 2297 3.9 18:04:03 10° NNW 18:09:46 84° WSW 18:15:28 10° SSE
H-2A R/B 2.6 18:05:02 10° SE 18:09:55 40° ENE 18:14:42 10° N
Cosmos 1939 Rocket 3.7 18:06:05 10° S 18:09:57 54° W 18:13:47 10° NNW
Cosmos 1726 3.8 18:09:45 10° SE 18:12:00 15° E 18:14:15 10° NE
TSX-5 4.1 18:07:13 10° NNW 18:12:17 73° ENE 18:16:11 10° SE
STARLINK-1099 3.8 18:09:29 10° NW 18:13:36 60° NNE 18:17:41 10° ESE
USA 186 2.9 18:11:50 10° SE 18:14:48 28° ENE 18:17:41 10° NNE
STARLINK-1104 3.8 18:14:28 10° NW 18:18:36 65° NNE 18:22:42 10° ESE
STARLINK-1144 3.7 18:19:25 10° NW 18:23:34 70° NNE 18:27:33 11° ESE
ARGOS Delta rocket 4.1 18:20:38 10° SSE 18:25:48 72° ENE 18:31:13 10° N
Cosmos 2251 Rocket 3.8 18:22:15 10° S 18:27:21 47° ESE 18:32:31 10° NNE
STARLINK-1103 3.6 18:24:24 10° NW 18:28:33 75° NE 18:32:20 12° ESE
Cosmos 292 Rocket 4.1 18:24:11 10° N 18:28:49 46° ENE 18:33:27 10° SE
Cosmos 1953 2.8 18:26:46 10° SSE 18:30:25 37° E 18:34:07 10° NNE
Cosmos 1455 Rocket 4.3 18:26:17 10° SSW 18:30:27 47° WNW 18:34:42 10° N
YAOGAN 1 4.4 18:26:49 10° SSW 18:30:45 34° W 18:34:43 10° NNW
MONITOR-E 4.4 18:28:58 10° SE 18:31:26 36° ENE 18:33:54 10° N
STARLINK-1101 3.6 18:29:23 10° NW 18:33:32 81° NE 18:37:07 13° ESE
Cosmos 2315 Rocket 4.0 18:27:18 10° S 18:33:38 85° E 18:40:02 10° N
Resurs 01 Rocket 3.2 18:34:55 13° E 18:37:12 18° ENE 18:40:14 10° NNE
FREGAT/IRIS 2.4 18:34:44 10° SSE 18:37:24 55° ENE 18:40:05 10° N
STARLINK-1102 3.6 18:34:22 10° NW 18:38:31 88° NNE 18:41:55 15° SE
Aureole 3 3.8 18:34:21 10° S 18:38:33 59° E 18:43:59 10° NNE
Cosmos 1626 Rocket 3.6 18:35:24 10° N 18:39:48 85° W 18:44:08 10° S
NOSS 3-3 (A) 3.9 18:34:10 10° SSW 18:39:49 60° ESE 18:46:10 10° NE
NOSS 3-3 (C) 3.9 18:34:17 10° SSW 18:39:56 59° ESE 18:46:15 10° NE
Cosmos 2369 Rocket 2.4 18:34:33 10° NNW 18:40:10 56° ENE 18:45:29 11° SE
Cosmos 1626 3.3 18:38:50 10° NNW 18:42:23 45° W 18:45:56 10° SSW
STARLINK-1111 3.6 18:39:20 10° NW 18:43:29 86° SW 18:46:42 16° SE
Cosmos 1943 Rocket 2.1 18:40:39 10° NNW 18:46:14 81° ENE 18:51:49 10° SSE
SL-8 R/B 3.8 18:41:32 10° WNW 18:46:18 68° NNE 18:49:51 18° E
Cosmos 1437 3.6 18:43:52 10° NNE 18:46:31 27° ENE 18:47:32 22° ESE
IRIDIUM 104 4.4 18:41:31 10° N 18:46:40 55° E 18:51:45 10° SSE
ADEOS Rocket 4.5 18:41:03 10° N 18:47:10 43° WNW 18:52:44 10° SW
Cosmos 1709 Rocket 4.4 18:41:21 10° NNW 18:47:29 68° W 18:53:32 10° S
STARLINK-1073 3.6 18:44:19 10° WNW 18:48:28 79° SW 18:51:29 18° SE
CZ-2C R/B 4.1 18:44:56 10° NNE 18:49:26 43° E 18:53:52 10° S
Cosmos 1602 Rocket 3.6 18:45:07 10° N 18:49:35 86° W 18:53:59 10° S
Cosmos 1470 3.5 18:47:08 10° SSW 18:50:56 55° W 18:54:48 10° N
STARLINK-1121 3.7 18:49:17 10° WNW 18:53:25 73° SW 18:56:15 19° SE
Cosmos 1908 4.3 18:52:23 21° ESE 18:53:33 24° E 18:56:42 10° NE
Ariane Rocket 3.3 18:49:51 10° S 18:54:54 69° WSW 18:59:58 10° NNW
Cosmos 2263 4.4 18:49:59 10° NNW 18:55:30 54° ENE 18:59:31 18° SE
IRIDIUM 114 4.3 18:50:38 10° N 18:55:51 67° E 19:01:02 10° SSE
STARLINK-1106 3.8 18:54:16 10° WNW 18:58:23 67° SW 19:01:02 21° SE
Abrixas rocket 3.2 18:56:27 10° W 18:59:15 37° NNW 19:01:18 16° NE
Cosmos 1726 Rocket 4.2 18:57:25 16° SE 19:00:16 33° E 19:04:13 10° NNE
Aureole 2 Rocket 2.4 18:57:31 10° NNW 19:01:01 82° WSW 19:03:31 17° SSE
Cosmos 2074 Rocket 4.0 18:56:16 10° N 19:02:31 65° E 19:08:45 10° SSE
Cosmos 1943 3.2 18:57:21 10° S 19:02:54 61° ESE 19:08:29 10° NNE
STARLINK-1112 3.9 18:59:16 10° WNW 19:03:22 61° SW 19:05:49 23° SE
ATLAS 2AS CENTAUR R/B 3.5 18:57:09 10° NNW 19:04:22 42° NE 19:08:47 21° E
IRIDIUM 103 4.2 18:59:47 10° N 19:05:02 81° E 19:10:15 10° S
ISS -3.7 19:02:34 10° WNW 19:05:56 74° SW 19:07:16 33° SE
SL-08 RB Rocket 3.6 19:02:46 10° SSE 19:07:13 81° ENE 19:11:50 10° N
Cosmos 1825 Rocket 3.6 19:02:58 10° N 19:07:19 56° E 19:10:01 21° SSE
USA 234 3.4 19:01:09 10° ENE 19:07:29 51° SE 19:13:48 10° SSW
STARLINK-1128 4.0 19:04:17 10° WNW 19:08:21 56° SW 19:10:37 24° SSE
SPOT 3 Rocket 3.5 19:06:50 14° SSE 19:11:20 72° ENE 19:16:32 10° N
STARLINK-1113 4.2 19:09:16 10° WNW 19:13:17 51° SW 19:15:23 25° SSE
SJ-6B 3.4 19:13:45 10° S 19:17:47 61° W 19:21:54 10° NNW
STARLINK-1119 4.3 19:14:17 10° WNW 19:18:16 46° SW 19:20:11 26° SSE
Cosmos 1758 Rocket 3.4 19:14:44 10° N 19:19:06 90° ENE 19:22:14 18° S
STARLINK-1114 4.5 19:19:17 10° WNW 19:23:13 42° SW 19:24:58 27° S
MOS 1 Rocket 3.6 19:18:48 10° NNE 19:24:06 62° E 19:29:29 10° S
Cosmos 1953 Rocket 3.6 19:21:53 10° N 19:26:19 61° E 19:27:53 37° SE
CZ-2C R/B 4.0 19:22:40 10° S 19:27:25 44° W 19:32:01 10° NNW
Cosmos 1818 3.4 19:22:48 10° SSW 19:28:12 76° ESE 19:33:41 10° NE
Cosmos 1606 Rocket 3.4 19:23:53 10° S 19:28:17 84° E 19:32:45 10° N
Cosmos 614 Rocket 4.0 19:27:01 10° S 19:32:08 57° ESE 19:37:16 10° NNE
BREEZE M DEB (TANK) 3.7 19:21:39 10° SW 19:32:43 71° SSE 19:34:30 34° ENE
Cosmos 921 Rocket 4.3 19:29:41 10° N 19:32:50 24° NE 19:32:50 24° NE
Cosmos 407 Rocket 3.6 19:30:03 21° S 19:33:11 48° ESE 19:38:08 10° NNE
Cosmos 2228 2.9 19:30:16 11° S 19:34:22 89° WNW 19:38:42 10° N
SL-24 R/B 4.3 19:31:32 10° N 19:35:47 64° WNW 19:39:33 10° SSW
CZ-2C R/B 2.4 19:30:54 10° NNE 19:36:05 74° ESE 19:41:16 10° S
Cosmos 1656 Rocket 3.6 19:32:22 10° NNW 19:38:03 77° ENE 19:40:14 39° SE
Cosmos 2327 Rocket 4.5 19:33:36 10° N 19:39:57 86° E 19:44:16 22° S
ARGOS 4.4 19:35:25 10° SSW 19:40:27 39° W 19:45:30 10° NNW
MetOp-A 4.4 19:38:31 18° S 19:42:29 68° WSW 19:47:50 10° NNW
Cosmos 1295 Rocket 4.5 19:37:38 10° N 19:43:54 64° E 19:46:25 37° SSE
SL-4 R/B 2.3 19:41:25 10° SW 19:43:45 41° SW 19:43:45 41° SW
BREEZE-M DEB (TANK) 3.3 19:40:51 10° WNW 19:45:55 60° NNE 19:45:58 60° NNE
Cosmos 1726 3.8 19:43:27 10° SW 19:46:53 34° WNW 19:50:20 10° N
COSMOS 2455 3.7 19:41:23 10° NNW 19:46:53 35° NE 19:48:18 31° ENE
Cosmos 2341 Rocket 4.2 19:40:49 10° N 19:47:01 50° ENE 19:48:36 42° ESE
Cosmos 1340 Rocket 3.0 19:47:47 54° NE 19:47:47 54° NE 19:51:12 10° NNE
ERS-1 Rocket 4.2 19:47:59 25° ENE 19:47:59 25° ENE 19:51:47 10° N
H-2A R/B 4.0 19:45:01 10° SSW 19:49:26 27° W 19:53:46 10° NW
Resurs 1-3 4.2 19:51:24 29° SSW 19:53:23 53° W 19:57:41 10° NNW
Cosmos 1328 4.2 19:50:39 10° NNW 19:54:36 59° W 19:55:27 47° SW
Cosmos 1703 4.4 20:02:16 10° NNW 20:06:00 41° W 20:06:52 35° SW
Cosmos 2218 Rocket 4.3 20:01:51 10° N 20:07:45 44° ENE 20:07:52 44° E
Cosmos 1461 3.7 20:03:59 10° NNW 20:07:55 45° NNE 20:07:55 45° NNE
Cosmos 1023 Rocket 4.3 20:11:23 79° SE 20:11:34 81° ESE 20:16:45 10° NNE
Resurs 01 Rocket 2.4 20:12:28 41° SW 20:13:20 47° W 20:17:37 10° NNW
USA 245 4.0 20:18:18 77° SE 20:18:43 85° ENE 20:24:50 10° NNW
Cosmos 2181 Rocket 3.9 20:18:41 64° ESE 20:18:58 65° E 20:25:07 10° NNE
APEX 4.1 20:12:18 10° NNW 20:18:58 85° WSW 20:19:41 70° S
Cosmos 2058 Rocket 3.7 20:18:19 46° WSW 20:19:12 55° WNW 20:23:40 10° N
NOSS 3-4 (A) 3.8 20:16:07 10° NW 20:23:12 87° SW 20:24:57 57° SSE
NOSS 3-4 (C) 3.8 20:16:13 10° NW 20:23:18 88° SW 20:25:02 58° SSE
Landsat 7 4.1 20:24:18 61° NNE 20:24:18 61° NNE 20:28:19 10° N
Cosmos 2369 Rocket 4.2 20:19:27 10° NW 20:23:44 22° W 20:27:19 13° SW
SL-8 Rocket 3.8 20:26:15 10° N 20:32:36 81° E 20:32:55 78° ESE
Cosmos 864 Rocket 4.5 20:30:50 10° N 20:36:39 65° ENE 20:36:39 65° ENE
SPOT 5 4.2 20:39:20 29° N 20:39:20 29° N 20:41:37 10° N
SL-24 R/B - RUBIN 2 4.4 20:32:16 10° SW 20:37:47 72° NW 20:44:05 10° NNE
Cosmos 2366 rocket 3.9 20:36:46 10° N 20:42:32 73° NE 20:42:32 73° NE
Spot 2 Rocket 4.1 20:46:23 50° W 20:46:23 50° W 20:51:14 10° NNW
USA 234 3.8 20:44:10 10° NE 20:50:32 56° NNW 20:56:53 10° WSW
Cosmos 1140 Rocket 4.3 20:51:22 43° W 20:52:11 47° WNW 20:57:12 10° N
Cosmos 1959 Rocket 4.5 20:47:33 10° N 20:53:38 82° NW 20:53:38 82° NW
ATLAS 2AS CENTAUR R/B 3.1 20:48:20 10° NW 20:55:33 53° WSW 20:56:14 51° SW
BREEZE M DEB (TANK) 3.8 21:02:08 67° NE 21:02:08 67° NE 21:14:22 10° ENE
Terra 3.4 21:07:36 32° N 21:07:36 32° N 21:10:09 10° N
Cosmos 1697 Rocket 4.3 21:03:26 10° N 21:06:58 25° NNE 21:06:58 25° NNE
CZ-4C R/B 4.3 21:10:09 10° NNW 21:15:56 27° NE 21:17:32 25° NE
COSMOS 2455 3.9 21:27:15 10° NW 21:31:27 38° WNW 21:31:27 38° WNW
Cosmos 1980 Rocket 4.1 21:30:55 10° N 21:33:52 22° NNE 21:33:52 22° NNE
ATLAS 5 CENTAUR R/B 4.4 22:02:17 16° N 22:02:17 16° N 22:03:51 10° NNE
SL-16 R/B 4.3 22:58:09 10° N 23:00:32 23° N 23:00:32 23° N
CZ-4C R/B 3.8 22:58:11 10° NW 23:02:42 44° NNW 23:02:42 44° NNW
Cosmos 2360 Rocket 4.5 23:08:04 10° N 23:10:44 19° NNE 23:10:44 19° NNE
Cosmos 2322 Rocket 4.3 23:09:29 10° N 23:11:48 22° N 23:11:48 22° N
Cosmos 2344 4.4 23:30:01 10° NW 23:38:51 69° W 23:38:51 69° W
Cosmos 2082 Rocket 4.3 23:44:35 22° NNW 23:44:35 22° NNW 23:47:01 10° N
